Tracking 31027 objects as of 19-Jul-2025
HD Live streaming from Space Station
objects crossing your sky now

NOAA 16 DEB

Track NOAA 16 DEB now!
10-day predictions


NORAD ID: 41402
Int'l Code: 2000-055KF
Perigee: 820.0 km
Apogee: 867.5 km
Inclination: 98.7 °
Period: 101.6 minutes
Semi major axis: 7214 km
RCS: Unknown
Launch date: September 21, 2000
Source: United States (US)
Launch site: AIR FORCE WESTERN TEST RANGE (AFWTR)

Note: This is SATELLITE DEBRIS
Your satellite tracking list
GALASSIA
Track 1 satellite(s)




NASA's NSSDC Master Catalog

Two Line Element Set (TLE):
1 41402U 00055KF  25199.55019401  .00002036  00000-0  10351-2 0  9995
2 41402  98.7040 230.6282 0032952 124.3914 236.0384 14.16672426485090
Source of the keplerian elements: AFSPC